[[{"header":{"parameterUnit":"m.s-1","parameterCategory":1,"la1":30.2991,"la2":30.254,"lo1":-89.0895,"lo2":-89.0444,"dy":0.0017,"dx":0.0017,"nx":28,"ny":28,"refTime":"2025-09-08T03:00:00:Z","depth":0,"parameterNumber":2,"parameterNumberName":"U-component_of_WINDS"},"data":[0,0,0,0,0,0,0,0,0,0,0,0,0,0,0,0,0,0,0,0,0,0,0,0,0,0,0,0,0,0,0,0,0,0,0,0,0,0,0,0,0,0,0,0,0,0,0,0,0,0,0,0,0,0,0,0,0,0,-5.2175,-5.2175,0,-5.222,-5.222,-5.2221,-5.2072,-5.2067,-5.2063,-5.2058,-5.2105,-5.211,-5.2116,0,0,0,0,0,0,0,0,0,0,0,0,0,-5.1959,-5.1964,-5.2175,-5.2175,-5.2176,-5.222,-5.222,-5.2221,-5.2072,-5.2067,-5.2061,-5.2056,-5.2103,-5.2109,-5.2116,0,0,0,0,0,0,0,0,0,0,0,0,0,-5.2034,-5.1966,-5.2175,-5.2107,-5.2101,-5.222,-5.222,-5.2221,-5.2074,-5.2067,-5.206,-5.2054,-5.2101,-5.2109,-5.2117,-5.2303,0,0,-5.2142,-5.2145,0,0,0,0,0,0,0,0,-5.203,-5.2042,-5.2116,-5.2112,-5.2106,-5.2133,-5.2161,-5.2248,-5.2075,-5.2084,-5.2058,-5.205,-5.212,-5.2126,-5.2149,-5.2305,-5.2307,-5.2143,-5.2148,-5.2151,-5.2153,0,0,0,0,0,0,0,-5.2025,-5.2039,-5.2192,-5.2118,-5.2111,-5.2074,-5.2077,-5.2177,-5.2139,-5.2083,-5.2072,-5.2079,-5.2116,-5.2142,-5.2149,-5.2307,-5.2142,-5.215,-5.2155,-5.2158,-5.2616,-5.2623,0,0,0,0,0,0,-5.2029,-5.2036,-5.2191,-5.2194,-5.205,-5.2084,-5.2087,-5.2131,-5.2138,-5.2132,-5.2085,-5.2072,-5.2131,-5.214,-5.215,-5.2367,-5.2151,-5.2159,-5.2163,-5.2609,-5.2618,-5.2626,0,0,0,0,0,0,-5.2024,-5.2044,-5.2189,-5.2112,-5.2128,-5.2094,-5.2145,-5.2136,-5.2162,-5.214,-5.2132,-5.2119,-5.2126,-5.2139,-5.2265,-5.2366,-5.2162,-5.217,-5.26,-5.2612,-5.2622,-5.2803,0,0,0,0,0,0,-5.2019,-5.2043,-5.2114,-5.2115,-5.2132,-5.2305,-5.2152,-5.2141,-5.2176,-5.216,-5.2169,-5.2164,-5.2122,-5.2254,-5.2274,-5.2374,-5.2176,-5.2591,-5.2605,-5.2618,-5.2788,-5.2819,-5.2845,0,0,0,0,0,-5.2012,-5.2163,-5.2118,-5.2138,-5.222,-5.2311,-5.2321,-5.2268,-5.2185,-5.2255,-5.2241,-5.2164,-5.2353,-5.2268,-5.2289,-5.2394,-5.2584,-5.2601,-5.2617,-5.2775,-5.2813,-5.2844,0,0,0,0,0,0,-5.2175,-5.2162,-5.2112,-5.2268,-5.2292,-5.2285,-5.2372,-5.231,-5.2358,-5.2341,-5.2274,-5.2277,-5.2416,-5.2417,-5.2324,-5.2573,-5.2454,-5.2475,-5.2567,-5.2603,-5.2631,-5.2627,-5.2183,0,0,0,0,0,-5.223,-5.2305,-5.2289,-5.2428,-5.2443,-5.2406,-5.2444,-5.2401,-5.2423,-5.2432,-5.2427,-5.2451,-5.2515,-5.2559,-5.2617,-5.2787,-5.2787,-5.2869,-5.2898,-5.2922,-5.2941,-5.303,-5.3066,-5.2679,-5.2679,-5.2679,0,0,-5.2343,-5.2345,-5.2396,-5.2461,-5.2474,-5.2553,-5.2415,-5.2505,-5.2562,-5.2446,-5.2564,-5.2562,-5.2584,-5.2733,-5.2799,-5.2739,-5.3047,-5.2943,-5.2962,-5.2968,-5.305,-5.3087,-5.312,-5.269,-5.2688,-5.2687,0,0,-5.2588,-5.2598,-5.2714,-5.273,-5.2752,-5.2726,-5.2754,-5.2757,-5.2751,-5.2869,-5.2783,-5.2851,-5.2963,-5.2982,-5.3007,-5.3259,-5.319,-5.328,-5.343,-5.3518,-5.3548,-5.3575,-5.3664,-5.3697,-5.3299,-5.33,-5.33,0,-5.2726,-5.2841,-5.2782,-5.2877,-5.2908,-5.2806,-5.2923,-5.2941,-5.2981,-5.3005,-5.2937,-5.3075,-5.3083,-5.3235,-5.3297,-5.332,-5.335,-5.3278,-5.3548,-5.3575,-5.3599,-5.3683,-5.3717,-5.331,-5.3309,-5.3308,-5.3307,0,-5.3008,-5.309,-5.3181,-5.3222,-5.3263,-5.3369,-5.3326,-5.3375,-5.3329,-5.3311,-5.3432,-5.3438,-5.3495,-5.3528,-5.3484,-5.3674,-5.3635,-5.356,-5.3438,-5.3647,-5.3725,-5.3757,-5.3326,-5.3322,-5.3319,-5.3316,0,0,-5.3358,-5.3364,-5.3399,-5.3415,-5.3432,-5.3493,-5.3594,-5.365,-5.3692,-5.3723,-5.3806,-5.3903,-5.3833,-5.3861,-5.3818,-5.3896,-5.4094,-5.3809,-5.3809,-5.3861,-5.4302,-5.4358,-5.4397,-5.4049,-5.4055,-5.4059,-5.4299,0,-5.3599,-5.3771,-5.3721,-5.3894,-5.3968,-5.3872,-5.396,-5.3979,-5.3965,-5.4025,-5.4009,-5.4079,-5.3981,-5.3997,-5.4069,-5.4055,-5.4181,-5.4037,-5.4124,-5.4128,-5.4121,-5.4437,-5.4498,-5.4724,-5.433,-5.4335,-5.4339,0,-5.3903,-5.3945,-5.4126,-5.4128,-5.4157,-5.4237,-5.4283,-5.4343,-5.4362,-5.4346,-5.4378,-5.4319,-5.4418,-5.4298,-5.4432,-5.4335,-5.4368,-5.4367,-5.4374,-5.4379,-5.4245,-5.4451,-5.4795,-5.4829,-5.4386,-5.4382,-5.4379,0,-5.4139,-5.4241,-5.4361,-5.4379,-5.4385,-5.4444,-5.4449,-5.4462,-5.4498,-5.4539,-5.4561,-5.4614,-5.4642,-5.4684,-5.4641,-5.4557,-5.4782,-5.4658,-5.4771,-5.4773,-5.4822,-5.482,-5.5176,-5.4846,-5.4845,-5.4844,-5.4844,0,-5.4412,-5.4526,-5.4467,-5.4542,-5.4666,-5.4607,-5.4732,-5.4727,-5.4739,-5.481,-5.4731,-5.4799,-5.4739,-5.4802,-5.477,-5.4886,-5.49,-5.4889,-5.4879,-5.4896,-5.4897,-5.4916,-5.4899,-5.4853,-5.4851,-5.485,-5.4848,0,-5.4696,-5.4662,-5.4787,-5.4782,-5.4784,-5.4876,-5.4872,-5.494,-5.492,-5.5011,-5.5029,-5.4998,-5.5068,-5.5029,-5.5102,-5.508,-5.523,-5.5199,-5.5224,-5.5215,-5.533,-5.5319,-5.571,-5.5758,-5.5398,-5.5402,-5.5405,0,-5.4873,-5.4958,-5.4963,-5.5005,-5.5015,-5.5084,-5.512,-5.5066,-5.5107,-5.5135,-5.52,-5.5264,-5.5311,-5.5428,-5.5411,-5.5466,-5.5435,-5.5568,-5.5443,-5.5457,-5.5436,-5.5431,-5.5439,-5.5593,-5.5598,-5.5601,-5.5604,0,-5.5189,-5.5167,-5.5223,-5.5273,-5.5318,-5.5355,-5.5385,-5.5424,-5.5369,-5.542,-5.549,-5.5527,-5.5601,-5.5664,-5.5711,-5.5716,-5.5652,-5.5644,-5.5672,-5.569,-5.57,-5.5695,-5.5292,-5.5635,-5.5632,-5.5629,-5.5628,-5.5626,-5.5424,-5.5495,-5.5509,-5.5573,-5.559,-5.5619,-5.5683,-5.567,-5.5728,-5.5783,-5.5748,-5.5831,-5.5848,-5.5904,-5.5918,-5.5982,-5.5928,-5.597,-5.5981,-5.5992,-5.6007,-5.5691,-5.599,-5.5989,-5.5988,-5.5988,-5.5987,0,-5.5735,-5.5739,-5.5799,-5.5843,-5.5894,-5.5828,-5.5857,-5.5904,-5.5978,-5.5999,-5.6047,-5.6128,-5.6189,-5.6177,-5.6233,-5.6286,-5.6258,-5.6303,-5.6298,-5.63,-5.6052,-5.6021,-5.6325,-5.6324,-5.6324,-5.6324,-5.6324,-5.6324,-5.5903,-5.6019,-5.5999,-5.6123,-5.6126,-5.6206,-5.6228,-5.6255,-5.6271,-5.6365,-5.6415,-5.6407,-5.6415,-5.647,-5.6523,-5.6518,-5.6542,-5.6598,-5.6582,-5.6351,-5.6317,-5.6285,-5.6256,-5.6604,-5.6604,-5.6824,-5.6826,-5.6827]},{"header":{"parameterUnit":"m.s-1","parameterCategory":1,"la1":30.2991,"la2":30.254,"lo1":-89.0895,"lo2":-89.0444,"dy":0.0017,"dx":0.0017,"nx":28,"ny":28,"refTime":"2025-09-08T03:00:00:Z","depth":0,"parameterNumber":3,"parameterNumberName":"V-component_of_WINDS"},"data":[0,0,0,0,0,0,0,0,0,0,0,0,0,0,0,0,0,0,0,0,0,0,0,0,0,0,0,0,0,0,0,0,0,0,0,0,0,0,0,0,0,0,0,0,0,0,0,0,0,0,0,0,0,0,0,0,0,0,-2.219,-2.219,0,-2.2218,-2.2218,-2.2218,-2.2234,-2.2234,-2.2234,-2.2234,-2.226,-2.2261,-2.2262,0,0,0,0,0,0,0,0,0,0,0,0,0,-2.2146,-2.2146,-2.219,-2.219,-2.219,-2.2218,-2.2218,-2.2218,-2.2234,-2.2234,-2.2234,-2.2234,-2.226,-2.2261,-2.2262,0,0,0,0,0,0,0,0,0,0,0,0,0,-2.2168,-2.2147,-2.2189,-2.2201,-2.2203,-2.2218,-2.2218,-2.2218,-2.2234,-2.2234,-2.2234,-2.2234,-2.226,-2.2261,-2.2262,-2.2267,0,0,-2.2265,-2.2265,0,0,0,0,0,0,0,0,-2.2167,-2.217,-2.2199,-2.22,-2.2202,-2.2222,-2.2212,-2.2235,-2.2234,-2.2222,-2.2234,-2.2234,-2.2248,-2.225,-2.2255,-2.2268,-2.2269,-2.2265,-2.2266,-2.2266,-2.2266,0,0,0,0,0,0,0,-2.2165,-2.2169,-2.2201,-2.22,-2.2201,-2.2204,-2.2207,-2.2217,-2.2234,-2.2223,-2.2224,-2.2227,-2.2248,-2.2254,-2.2255,-2.2269,-2.2265,-2.2266,-2.2267,-2.2267,-2.2286,-2.2286,0,0,0,0,0,0,-2.2162,-2.2167,-2.22,-2.2201,-2.2184,-2.2205,-2.2208,-2.2216,-2.2234,-2.2237,-2.2227,-2.2228,-2.2252,-2.2254,-2.2256,-2.2262,-2.2266,-2.2267,-2.2268,-2.2286,-2.2286,-2.2286,0,0,0,0,0,0,-2.2161,-2.2165,-2.2199,-2.2185,-2.2189,-2.2205,-2.2213,-2.2216,-2.2222,-2.2237,-2.224,-2.223,-2.2252,-2.2255,-2.2264,-2.2263,-2.2267,-2.2268,-2.2286,-2.2286,-2.2286,-2.2274,0,0,0,0,0,0,-2.216,-2.2165,-2.2168,-2.2185,-2.219,-2.2207,-2.2213,-2.2217,-2.2223,-2.2225,-2.224,-2.2243,-2.2252,-2.2262,-2.2265,-2.2265,-2.2269,-2.2286,-2.2286,-2.2286,-2.2275,-2.2274,-2.2273,0,0,0,0,0,-2.2158,-2.2163,-2.2168,-2.2172,-2.2194,-2.2207,-2.2209,-2.2221,-2.2223,-2.2226,-2.2235,-2.2242,-2.2263,-2.2263,-2.2266,-2.2266,-2.2287,-2.2286,-2.2286,-2.2275,-2.2274,-2.2273,0,0,0,0,0,0,-2.2145,-2.2166,-2.2171,-2.2182,-2.2192,-2.2209,-2.2213,-2.2219,-2.2229,-2.223,-2.2243,-2.2246,-2.2253,-2.2261,-2.226,-2.2271,-2.2275,-2.2276,-2.2266,-2.2265,-2.2264,-2.2262,-2.227,0,0,0,0,0,-2.2144,-2.2153,-2.217,-2.2178,-2.2183,-2.2197,-2.2202,-2.221,-2.2221,-2.2226,-2.2236,-2.2246,-2.2255,-2.226,-2.2269,-2.2276,-2.2278,-2.2277,-2.2276,-2.2275,-2.2275,-2.2278,-2.2277,-2.2285,-2.2285,-2.2285,0,0,-2.2141,-2.2153,-2.2158,-2.2175,-2.2184,-2.2192,-2.22,-2.2209,-2.2215,-2.2227,-2.2236,-2.2244,-2.2255,-2.2263,-2.2267,-2.2269,-2.2274,-2.2275,-2.2274,-2.2275,-2.2278,-2.2277,-2.2276,-2.2285,-2.2285,-2.2285,0,0,-2.2139,-2.2149,-2.2156,-2.2165,-2.2179,-2.2188,-2.2189,-2.2205,-2.221,-2.2219,-2.2228,-2.2235,-2.225,-2.2257,-2.2263,-2.2262,-2.2268,-2.2264,-2.2259,-2.2261,-2.2261,-2.226,-2.2259,-2.2258,-2.2264,-2.2264,-2.2264,0,-2.2133,-2.2146,-2.2159,-2.2167,-2.2173,-2.2185,-2.2191,-2.2198,-2.2214,-2.2218,-2.222,-2.2238,-2.2247,-2.2256,-2.2255,-2.226,-2.2261,-2.2263,-2.226,-2.226,-2.2259,-2.2258,-2.2257,-2.2264,-2.2264,-2.2264,-2.2264,0,-2.2138,-2.2147,-2.215,-2.2165,-2.2172,-2.2179,-2.2191,-2.2196,-2.2203,-2.2211,-2.2219,-2.223,-2.2241,-2.2243,-2.225,-2.2252,-2.2253,-2.2258,-2.2262,-2.2258,-2.2257,-2.2256,-2.2263,-2.2263,-2.2263,-2.2263,0,0,-2.213,-2.215,-2.2151,-2.2157,-2.2172,-2.2179,-2.2185,-2.2196,-2.2199,-2.2209,-2.2214,-2.2226,-2.223,-2.2236,-2.2243,-2.2246,-2.2242,-2.225,-2.225,-2.2247,-2.2244,-2.224,-2.2239,-2.2246,-2.2246,-2.2246,-2.2243,0,-2.213,-2.2143,-2.2153,-2.2162,-2.2169,-2.2179,-2.2184,-2.2193,-2.2201,-2.2207,-2.2215,-2.2222,-2.2228,-2.2231,-2.2234,-2.2242,-2.2242,-2.2243,-2.225,-2.225,-2.2246,-2.2239,-2.2235,-2.2231,-2.2242,-2.2242,-2.2242,0,-2.2132,-2.2141,-2.215,-2.2163,-2.2166,-2.2171,-2.218,-2.2187,-2.2197,-2.2202,-2.2208,-2.2215,-2.2221,-2.2225,-2.2233,-2.2233,-2.2236,-2.2241,-2.2241,-2.2242,-2.2246,-2.2239,-2.223,-2.2229,-2.2242,-2.2242,-2.2242,0,-2.2123,-2.2138,-2.2145,-2.215,-2.2165,-2.2168,-2.2174,-2.2184,-2.2189,-2.2197,-2.22,-2.2209,-2.2213,-2.2219,-2.2228,-2.223,-2.2234,-2.2239,-2.2237,-2.2237,-2.2238,-2.2237,-2.2229,-2.2241,-2.2241,-2.2241,-2.2241,0,-2.2122,-2.2127,-2.2142,-2.2146,-2.2151,-2.2162,-2.2167,-2.2174,-2.2182,-2.2187,-2.2196,-2.22,-2.2212,-2.2217,-2.2224,-2.2228,-2.223,-2.2234,-2.2235,-2.2233,-2.2232,-2.2235,-2.2235,-2.224,-2.224,-2.224,-2.224,0,-2.2114,-2.2124,-2.2133,-2.2146,-2.2149,-2.2152,-2.2163,-2.2167,-2.2174,-2.218,-2.2182,-2.2193,-2.2199,-2.2209,-2.2218,-2.2223,-2.2226,-2.2229,-2.2222,-2.2223,-2.2221,-2.2221,-2.2214,-2.2213,-2.2225,-2.2225,-2.2225,0,-2.2113,-2.2117,-2.213,-2.2134,-2.214,-2.2146,-2.2151,-2.2161,-2.2166,-2.2176,-2.2178,-2.2185,-2.2192,-2.2201,-2.221,-2.2216,-2.2219,-2.2216,-2.222,-2.2217,-2.2218,-2.2218,-2.2217,-2.2215,-2.2215,-2.2215,-2.2215,0,-2.2108,-2.2112,-2.212,-2.2128,-2.2133,-2.214,-2.2147,-2.215,-2.2161,-2.2166,-2.2172,-2.2177,-2.2186,-2.2193,-2.22,-2.2206,-2.2212,-2.2213,-2.2213,-2.221,-2.2206,-2.2207,-2.2219,-2.2213,-2.2213,-2.2214,-2.2214,-2.2214,-2.2103,-2.2106,-2.2116,-2.2122,-2.2129,-2.2135,-2.2139,-2.2146,-2.2152,-2.216,-2.2165,-2.2171,-2.2179,-2.219,-2.2195,-2.2199,-2.2202,-2.2202,-2.2201,-2.2201,-2.22,-2.2205,-2.22,-2.2201,-2.2201,-2.2201,-2.2201,0,-2.2098,-2.2104,-2.211,-2.212,-2.2125,-2.213,-2.2138,-2.2141,-2.2147,-2.2153,-2.2159,-2.2166,-2.2172,-2.218,-2.2186,-2.2188,-2.219,-2.2189,-2.2189,-2.219,-2.2198,-2.2197,-2.2187,-2.2187,-2.2187,-2.2187,-2.2187,-2.2187,-2.2096,-2.2102,-2.2107,-2.2115,-2.212,-2.2126,-2.213,-2.2135,-2.2141,-2.2148,-2.2153,-2.2158,-2.2165,-2.2172,-2.2177,-2.2179,-2.218,-2.2178,-2.2181,-2.2188,-2.2189,-2.219,-2.219,-2.2178,-2.2178,-2.2172,-2.2172,-2.2172]}]]